Weather History for KFAR - July, 2013

Change the Weather History Date:

Monday, July 22, 2013

  Actual Average Record
Temperature  
Mean Temperature 64 °F 71 °F  
Max Temperature 75 °F 83 °F 106 °F (1934)
Min Temperature 53 °F 60 °F 42 °F (1887)
Degree Days  
Heating Degree Days 1 0  
Month to date heating degree days 1 12  
Since 1 June heating degree days 63 85  
Since 1 July heating degree days 1 12  
Cooling Degree Days 0 7  
Month to date cooling degree days 218 144  
Year to date cooling degree days 393 282  
Since 1 June cooling degree days 364 251  
Growing Degree Days 15 (Base 50)    
Moisture  
Dew Point 58 °F    
Average Humidity 70    
Maximum Humidity 87    
Minimum Humidity 53    
Precipitation  
Precipitation 0.01 in 0.08 in 2.12 in (1969)
Month to date precipitation 0.82 2.13  
Year to date precipitation 21.45 12.84  
Snow  
Snow 0.00 in 0.00 in 0.00 in ()
Month to date snowfall 0.0 0.0  
Since 1 June snowfall 0.0 0.0  
Since 1 July snowfall 0.0 0.0  
Snow Depth 0.00 in    
Sea Level Pressure  
Sea Level Pressure 29.78 in    
Wind  
Wind Speed 11 mph (NW)    
Max Wind Speed 20 mph    
Max Gust Speed 24 mph    
Visibility 10 miles    
Events      
T = Trace of Precipitation, MM = Missing Value Source: NWS Daily Summary

Daily Weather History Graph

Daily Weather History Graph

Search for Another Location

Airport or City:

Trip Planner

Search our weather history database for the weather conditions in past years. The results will help you decide how hot, cold, wet, or windy it might be!

Date:

Astronomy

Jul. 22, 2013 Rise Set
Actual Time 5:55 AM CDT 9:11 PM CDT
Civil Twilight 5:18 AM CDT 9:48 PM CDT
Nautical Twilight 4:30 AM CDT 10:36 PM CDT
Astronomical Twilight 3:29 AM CDT 11:36 PM CDT
Moon 8:51 PM CDT (7/22) 5:57 AM CDT (7/22)
Length of Visible Light 16h 29m
Length of Day
15h 15m
Full, 100% of the Moon is Illuminated
Jul 22
Full
Jul 22
Full
Jul 29
Last Quarter
Aug 6
New
Aug 14
First Quarter

Hourly Weather History & Observations

Time (CDT) Temp. Dew Point Humidity Pressure Visibility Wind Dir Wind Speed Gust Speed Precip Events Conditions
12:53 AM 73.9 °F 66.0 °F 76% 29.64 in 10.0 mi South 12.7 mph - N/A   Mostly Cloudy
1:53 AM 73.9 °F 66.0 °F 76% 29.65 in 10.0 mi SSW 10.4 mph - N/A   Overcast
2:53 AM 72.0 °F 66.0 °F 81% 29.63 in 10.0 mi WSW 8.1 mph - 0.01 in   Mostly Cloudy
3:53 AM 71.1 °F 64.0 °F 78% 29.64 in 10.0 mi West 8.1 mph - N/A   Clear
4:53 AM 68.0 °F 63.0 °F 84% 29.66 in 10.0 mi WSW 5.8 mph - N/A   Mostly Cloudy
5:53 AM 64.9 °F 61.0 °F 87% 29.68 in 10.0 mi West 8.1 mph - N/A   Clear
6:53 AM 66.0 °F 61.0 °F 84% 29.69 in 10.0 mi WNW 10.4 mph - N/A   Clear
7:53 AM 68.0 °F 59.0 °F 73% 29.72 in 10.0 mi NNW 17.3 mph - N/A   Clear
8:25 AM 66.2 °F 59.0 °F 78% 29.74 in 10.0 mi NNW 16.1 mph - N/A   Mostly Cloudy
8:53 AM 66.9 °F 57.9 °F 73% 29.75 in 10.0 mi NNW 15.0 mph - N/A   Overcast
9:53 AM 68.0 °F 57.0 °F 68% 29.76 in 10.0 mi NNW 15.0 mph 23.0 mph N/A   Overcast
10:25 AM 68.0 °F 57.2 °F 68% 29.78 in 10.0 mi North 12.7 mph - N/A   Overcast
10:53 AM 69.1 °F 57.0 °F 65% 29.78 in 10.0 mi NNW 15.0 mph - N/A   Overcast
11:53 AM 70.0 °F 54.0 °F 57% 29.80 in 10.0 mi NNW 13.8 mph - N/A   Overcast
12:53 PM 73.0 °F 55.9 °F 55% 29.81 in 10.0 mi NNW 12.7 mph - N/A   Overcast
1:53 PM 72.0 °F 55.0 °F 55% 29.82 in 10.0 mi NNW 11.5 mph - N/A   Overcast
2:53 PM 72.0 °F 55.0 °F 55% 29.83 in 10.0 mi NNW 11.5 mph - N/A   Overcast
3:53 PM 72.0 °F 55.0 °F 55% 29.84 in 10.0 mi NNW 11.5 mph - N/A   Overcast
4:53 PM 72.0 °F 55.9 °F 57% 29.85 in 10.0 mi NNW 12.7 mph - N/A   Overcast
5:53 PM 72.0 °F 55.9 °F 57% 29.86 in 10.0 mi North 13.8 mph - N/A   Overcast
6:53 PM 72.0 °F 55.9 °F 57% 29.86 in 10.0 mi North 16.1 mph - N/A   Mostly Cloudy
7:53 PM 69.1 °F 54.0 °F 58% 29.88 in 10.0 mi North 15.0 mph - N/A   Scattered Clouds
8:53 PM 64.9 °F 54.0 °F 68% 29.89 in 10.0 mi North 9.2 mph - N/A   Clear
9:53 PM 60.1 °F 52.0 °F 75% 29.91 in 10.0 mi North 6.9 mph - N/A   Clear
10:53 PM 57.9 °F 51.1 °F 78% 29.93 in 10.0 mi NNW 6.9 mph - N/A   Clear
11:53 PM 54.0 °F 48.9 °F 83% 29.95 in 10.0 mi Calm Calm - N/A   Clear